Back to catalog

COSMOS 1867 COOLANT

AliveLEO
NORAD 39655·DEBRIS·🇷🇺 Russia

Launched Jul 10, 1987 from Baikonur Cosmodrome

Loading…

Next Passes (next 24 hours)

TLE

FreshSource: Space-Track

Epoch: Sep 13, 2026, 21:43 UTC

1 39655U 87060S   26256.90520986  .00000133  00000-0  83901-4 0  9991
2 39655  65.0044 121.8753 0018132 279.2522  80.6513 14.33790789649328

Track COSMOS 1867 COOLANT in real time with AllMySat

Download on the App Store